[{"OBJECT_NAME":"QIANFAN-118","OBJECT_ID":"2026-075K","EPOCH":"2026-09-12T06:57:08.472960","MEAN_MOTION":13.51024121,"ECCENTRICITY":0.00023317,"INCLINATION":88.988,"RA_OF_ASC_NODE":312.1219,"ARG_OF_PERICENTER":101.51,"MEAN_ANOMALY":258.6314,"EPHEMERIS_TYPE":0,"CLASSIFICATION_TYPE":"U","NORAD_CAT_ID":68645,"ELEMENT_SET_NO":999,"REV_AT_EPOCH":2156,"BSTAR":0.000091861972,"MEAN_MOTION_DOT":7.1e-7,"MEAN_MOTION_DDOT":0},{"OBJECT_NAME":"QIANFAN-119","OBJECT_ID":"2026-075L","EPOCH":"2026-09-12T06:21:28.041696","MEAN_MOTION":13.51037209,"ECCENTRICITY":0.00021605,"INCLINATION":88.988,"RA_OF_ASC_NODE":312.1201,"ARG_OF_PERICENTER":88.1048,"MEAN_ANOMALY":272.0351,"EPHEMERIS_TYPE":0,"CLASSIFICATION_TYPE":"U","NORAD_CAT_ID":68646,"ELEMENT_SET_NO":999,"REV_AT_EPOCH":2156,"BSTAR":0.00011968729,"MEAN_MOTION_DOT":8.9e-7,"MEAN_MOTION_DDOT":0},{"OBJECT_NAME":"QIANFAN-120","OBJECT_ID":"2026-075M","EPOCH":"2026-09-12T06:39:16.536672","MEAN_MOTION":13.51019638,"ECCENTRICITY":0.00021104,"INCLINATION":88.9882,"RA_OF_ASC_NODE":312.1052,"ARG_OF_PERICENTER":87.0488,"MEAN_ANOMALY":273.0905,"EPHEMERIS_TYPE":0,"CLASSIFICATION_TYPE":"U","NORAD_CAT_ID":68647,"ELEMENT_SET_NO":999,"REV_AT_EPOCH":2157,"BSTAR":0.000097610912,"MEAN_MOTION_DOT":7.5e-7,"MEAN_MOTION_DDOT":0},{"OBJECT_NAME":"QIANFAN-121","OBJECT_ID":"2026-075N","EPOCH":"2026-09-12T05:28:22.820160","MEAN_MOTION":13.51023202,"ECCENTRICITY":0.00022599,"INCLINATION":88.9879,"RA_OF_ASC_NODE":312.1133,"ARG_OF_PERICENTER":100.4047,"MEAN_ANOMALY":259.7359,"EPHEMERIS_TYPE":0,"CLASSIFICATION_TYPE":"U","NORAD_CAT_ID":68648,"ELEMENT_SET_NO":999,"REV_AT_EPOCH":2156,"BSTAR":0.00011148692,"MEAN_MOTION_DOT":8.4e-7,"MEAN_MOTION_DDOT":0},{"OBJECT_NAME":"QIANFAN-122","OBJECT_ID":"2026-075P","EPOCH":"2026-09-12T05:16:28.934976","MEAN_MOTION":13.51026689,"ECCENTRICITY":0.00023039,"INCLINATION":88.9878,"RA_OF_ASC_NODE":312.1113,"ARG_OF_PERICENTER":90.1276,"MEAN_ANOMALY":270.0139,"EPHEMERIS_TYPE":0,"CLASSIFICATION_TYPE":"U","NORAD_CAT_ID":68649,"ELEMENT_SET_NO":999,"REV_AT_EPOCH":2155,"BSTAR":0.000098044252,"MEAN_MOTION_DOT":7.5e-7,"MEAN_MOTION_DDOT":0},{"OBJECT_NAME":"QIANFAN-123","OBJECT_ID":"2026-075Q","EPOCH":"2026-09-12T06:15:32.223168","MEAN_MOTION":13.51031902,"ECCENTRICITY":0.00023366,"INCLINATION":88.9875,"RA_OF_ASC_NODE":312.0942,"ARG_OF_PERICENTER":84.3187,"MEAN_ANOMALY":275.823,"EPHEMERIS_TYPE":0,"CLASSIFICATION_TYPE":"U","NORAD_CAT_ID":68650,"ELEMENT_SET_NO":999,"REV_AT_EPOCH":2154,"BSTAR":0.00009719595,"MEAN_MOTION_DOT":7.5e-7,"MEAN_MOTION_DDOT":0},{"OBJECT_NAME":"QIANFAN-124","OBJECT_ID":"2026-075R","EPOCH":"2026-09-12T06:51:18.788832","MEAN_MOTION":13.51026297,"ECCENTRICITY":0.00023337,"INCLINATION":88.9878,"RA_OF_ASC_NODE":312.1031,"ARG_OF_PERICENTER":88.8832,"MEAN_ANOMALY":271.2586,"EPHEMERIS_TYPE":0,"CLASSIFICATION_TYPE":"U","NORAD_CAT_ID":68651,"ELEMENT_SET_NO":999,"REV_AT_EPOCH":2157,"BSTAR":0.00010450398,"MEAN_MOTION_DOT":8e-7,"MEAN_MOTION_DDOT":0},{"OBJECT_NAME":"QIANFAN-125","OBJECT_ID":"2026-075S","EPOCH":"2026-09-12T05:22:27.416352","MEAN_MOTION":13.51023295,"ECCENTRICITY":0.00022822,"INCLINATION":88.9878,"RA_OF_ASC_NODE":312.1113,"ARG_OF_PERICENTER":99.9898,"MEAN_ANOMALY":260.151,"EPHEMERIS_TYPE":0,"CLASSIFICATION_TYPE":"U","NORAD_CAT_ID":68652,"ELEMENT_SET_NO":999,"REV_AT_EPOCH":2156,"BSTAR":0.00011008027,"MEAN_MOTION_DOT":8.3e-7,"MEAN_MOTION_DDOT":0},{"OBJECT_NAME":"QIANFAN-126","OBJECT_ID":"2026-075T","EPOCH":"2026-09-12T05:34:05.415168","MEAN_MOTION":13.51028666,"ECCENTRICITY":0.00023136,"INCLINATION":88.9882,"RA_OF_ASC_NODE":312.0796,"ARG_OF_PERICENTER":84.7705,"MEAN_ANOMALY":275.371,"EPHEMERIS_TYPE":0,"CLASSIFICATION_TYPE":"U","NORAD_CAT_ID":68653,"ELEMENT_SET_NO":999,"REV_AT_EPOCH":2158,"BSTAR":0.00011629458,"MEAN_MOTION_DOT":8.7e-7,"MEAN_MOTION_DDOT":0},{"OBJECT_NAME":"QIANFAN-127","OBJECT_ID":"2026-104A","EPOCH":"2026-09-12T05:41:51.123264","MEAN_MOTION":13.5099338,"ECCENTRICITY":0.00025176,"INCLINATION":88.9933,"RA_OF_ASC_NODE":332.5953,"ARG_OF_PERICENTER":106.964,"MEAN_ANOMALY":253.1787,"EPHEMERIS_TYPE":0,"CLASSIFICATION_TYPE":"U","NORAD_CAT_ID":69073,"ELEMENT_SET_NO":999,"REV_AT_EPOCH":1691,"BSTAR":0.00016678922,"MEAN_MOTION_DOT":0.0000012,"MEAN_MOTION_DDOT":0},{"OBJECT_NAME":"QIANFAN-128","OBJECT_ID":"2026-104B","EPOCH":"2026-09-12T05:53:34.532448","MEAN_MOTION":13.51022544,"ECCENTRICITY":0.00021175,"INCLINATION":88.9911,"RA_OF_ASC_NODE":332.62,"ARG_OF_PERICENTER":114.5655,"MEAN_ANOMALY":245.5717,"EPHEMERIS_TYPE":0,"CLASSIFICATION_TYPE":"U","NORAD_CAT_ID":69074,"ELEMENT_SET_NO":999,"REV_AT_EPOCH":1689,"BSTAR":0.00017497441,"MEAN_MOTION_DOT":0.00000125,"MEAN_MOTION_DDOT":0},{"OBJECT_NAME":"QIANFAN-129","OBJECT_ID":"2026-104C","EPOCH":"2026-09-12T06:29:01.561344","MEAN_MOTION":13.51022446,"ECCENTRICITY":0.00022567,"INCLINATION":88.9913,"RA_OF_ASC_NODE":332.5516,"ARG_OF_PERICENTER":110.594,"MEAN_ANOMALY":249.5453,"EPHEMERIS_TYPE":0,"CLASSIFICATION_TYPE":"U","NORAD_CAT_ID":69075,"ELEMENT_SET_NO":999,"REV_AT_EPOCH":1693,"BSTAR":0.00015831499,"MEAN_MOTION_DOT":0.00000114,"MEAN_MOTION_DDOT":0},{"OBJECT_NAME":"QIANFAN-130","OBJECT_ID":"2026-104D","EPOCH":"2026-09-12T05:35:41.840160","MEAN_MOTION":13.51033089,"ECCENTRICITY":0.00025686,"INCLINATION":88.9915,"RA_OF_ASC_NODE":332.6211,"ARG_OF_PERICENTER":101.5021,"MEAN_ANOMALY":258.6419,"EPHEMERIS_TYPE":0,"CLASSIFICATION_TYPE":"U","NORAD_CAT_ID":69076,"ELEMENT_SET_NO":999,"REV_AT_EPOCH":1689,"BSTAR":0.00015563285,"MEAN_MOTION_DOT":0.00000113,"MEAN_MOTION_DDOT":0},{"OBJECT_NAME":"QIANFAN-131","OBJECT_ID":"2026-104E","EPOCH":"2026-09-12T06:05:34.543392","MEAN_MOTION":13.51024724,"ECCENTRICITY":0.0002017,"INCLINATION":88.9909,"RA_OF_ASC_NODE":332.58,"ARG_OF_PERICENTER":107.0164,"MEAN_ANOMALY":253.1209,"EPHEMERIS_TYPE":0,"CLASSIFICATION_TYPE":"U","NORAD_CAT_ID":69077,"ELEMENT_SET_NO":999,"REV_AT_EPOCH":1691,"BSTAR":0.00016009949,"MEAN_MOTION_DOT":0.00000115,"MEAN_MOTION_DDOT":0},{"OBJECT_NAME":"QIANFAN-132","OBJECT_ID":"2026-104F","EPOCH":"2026-09-12T05:47:32.627904","MEAN_MOTION":13.51020875,"ECCENTRICITY":0.00024183,"INCLINATION":88.9911,"RA_OF_ASC_NODE":332.6377,"ARG_OF_PERICENTER":103.1023,"MEAN_ANOMALY":257.0398,"EPHEMERIS_TYPE":0,"CLASSIFICATION_TYPE":"U","NORAD_CAT_ID":69078,"ELEMENT_SET_NO":999,"REV_AT_EPOCH":1688,"BSTAR":0.00018106551,"MEAN_MOTION_DOT":0.00000129,"MEAN_MOTION_DDOT":0},{"OBJECT_NAME":"QIANFAN-133","OBJECT_ID":"2026-104G","EPOCH":"2026-09-12T05:59:37.220640","MEAN_MOTION":13.51029704,"ECCENTRICITY":0.000188,"INCLINATION":88.9915,"RA_OF_ASC_NODE":332.5868,"ARG_OF_PERICENTER":112.23,"MEAN_ANOMALY":247.9051,"EPHEMERIS_TYPE":0,"CLASSIFICATION_TYPE":"U","NORAD_CAT_ID":69079,"ELEMENT_SET_NO":999,"REV_AT_EPOCH":1690,"BSTAR":0.00018097795,"MEAN_MOTION_DOT":0.00000129,"MEAN_MOTION_DDOT":0},{"OBJECT_NAME":"QIANFAN-134","OBJECT_ID":"2026-104H","EPOCH":"2026-09-12T06:41:02.662656","MEAN_MOTION":13.51028027,"ECCENTRICITY":0.00020811,"INCLINATION":88.9919,"RA_OF_ASC_NODE":332.6099,"ARG_OF_PERICENTER":113.5325,"MEAN_ANOMALY":246.6045,"EPHEMERIS_TYPE":0,"CLASSIFICATION_TYPE":"U","NORAD_CAT_ID":69080,"ELEMENT_SET_NO":999,"REV_AT_EPOCH":1690,"BSTAR":0.00017246729,"MEAN_MOTION_DOT":0.00000123,"MEAN_MOTION_DDOT":0},{"OBJECT_NAME":"QIANFAN-135","OBJECT_ID":"2026-104J","EPOCH":"2026-09-12T06:11:14.622432","MEAN_MOTION":13.51021222,"ECCENTRICITY":0.0002297,"INCLINATION":88.9913,"RA_OF_ASC_NODE":332.6032,"ARG_OF_PERICENTER":115.4135,"MEAN_ANOMALY":244.7254,"EPHEMERIS_TYPE":0,"CLASSIFICATION_TYPE":"U","NORAD_CAT_ID":69081,"ELEMENT_SET_NO":999,"REV_AT_EPOCH":1690,"BSTAR":0.00016962603,"MEAN_MOTION_DOT":0.00000122,"MEAN_MOTION_DDOT":0},{"OBJECT_NAME":"QIANFAN-136","OBJECT_ID":"2026-104K","EPOCH":"2026-09-12T06:23:13.406496","MEAN_MOTION":13.51031153,"ECCENTRICITY":0.00019177,"INCLINATION":88.9915,"RA_OF_ASC_NODE":332.6052,"ARG_OF_PERICENTER":112.8488,"MEAN_ANOMALY":247.2866,"EPHEMERIS_TYPE":0,"CLASSIFICATION_TYPE":"U","NORAD_CAT_ID":69082,"ELEMENT_SET_NO":999,"REV_AT_EPOCH":1690,"BSTAR":0.00017206541,"MEAN_MOTION_DOT":0.00000123,"MEAN_MOTION_DDOT":0},{"OBJECT_NAME":"QIANFAN-137","OBJECT_ID":"2026-104L","EPOCH":"2026-09-12T06:17:17.196576","MEAN_MOTION":13.51030852,"ECCENTRICITY":0.00023289,"INCLINATION":88.9924,"RA_OF_ASC_NODE":332.4817,"ARG_OF_PERICENTER":102.4551,"MEAN_ANOMALY":257.6861,"EPHEMERIS_TYPE":0,"CLASSIFICATION_TYPE":"U","NORAD_CAT_ID":69083,"ELEMENT_SET_NO":999,"REV_AT_EPOCH":1697,"BSTAR":0.00015051295,"MEAN_MOTION_DOT":0.00000109,"MEAN_MOTION_DDOT":0},{"OBJECT_NAME":"QIANFAN-138","OBJECT_ID":"2026-104M","EPOCH":"2026-09-12T06:52:42.435264","MEAN_MOTION":13.51020651,"ECCENTRICITY":0.00024601,"INCLINATION":88.9908,"RA_OF_ASC_NODE":332.6035,"ARG_OF_PERICENTER":110.4127,"MEAN_ANOMALY":249.7289,"EPHEMERIS_TYPE":0,"CLASSIFICATION_TYPE":"U","NORAD_CAT_ID":69084,"ELEMENT_SET_NO":999,"REV_AT_EPOCH":1690,"BSTAR":0.00016870719,"MEAN_MOTION_DOT":0.00000121,"MEAN_MOTION_DDOT":0},{"OBJECT_NAME":"QIANFAN-139","OBJECT_ID":"2026-104N","EPOCH":"2026-09-12T06:35:15.606816","MEAN_MOTION":13.51029384,"ECCENTRICITY":0.00024925,"INCLINATION":88.991,"RA_OF_ASC_NODE":332.5864,"ARG_OF_PERICENTER":104.8953,"MEAN_ANOMALY":255.2474,"EPHEMERIS_TYPE":0,"CLASSIFICATION_TYPE":"U","NORAD_CAT_ID":69085,"ELEMENT_SET_NO":999,"REV_AT_EPOCH":1691,"BSTAR":0.00016394741,"MEAN_MOTION_DOT":0.00000118,"MEAN_MOTION_DDOT":0},{"OBJECT_NAME":"QIANFAN-140","OBJECT_ID":"2026-104P","EPOCH":"2026-09-12T06:46:48.700704","MEAN_MOTION":13.51021723,"ECCENTRICITY":0.00023992,"INCLINATION":88.9911,"RA_OF_ASC_NODE":332.5891,"ARG_OF_PERICENTER":114.8997,"MEAN_ANOMALY":245.2404,"EPHEMERIS_TYPE":0,"CLASSIFICATION_TYPE":"U","NORAD_CAT_ID":69086,"ELEMENT_SET_NO":999,"REV_AT_EPOCH":1691,"BSTAR":0.00018250053,"MEAN_MOTION_DOT":0.0000013,"MEAN_MOTION_DDOT":0}]